FW8535 Weather Reports


Display with metric or nautical units.
time (UTC)temp
F
wind
direction
speed
MPH
gust
MPH
rain 1hr
in
rain 24hr
in
rain mn
in
humidity
%
barometer
mb
20260903113018 63 32 2.0 5.0 0.00 0.00 0.00 77 1003.4
20260903112014 64 31 2.0 5.0 0.00 0.00 0.00 75 1003.6
20260903111511 64 16 1.0 4.0 0.00 0.00 0.00 74 1003.5
20260903111012 65 16 2.0 5.0 0.00 0.00 0.00 74 1003.5
20260903110510 65 15 2.0 6.0 0.00 0.00 0.00 74 1003.5
20260903110010 65 46 3.0 6.0 0.00 0.00 0.00 74 1003.6
20260903105507 65 9 3.0 9.0 0.00 0.00 0.00 73 1003.4
20260903105007 65 44 4.0 9.0 0.00 0.00 0.00 73 1003.3
20260903104507 65 42 3.0 9.0 0.00 0.00 0.00 73 1003.2
20260903104006 65 38 5.0 11.0 0.00 0.00 0.00 73 1003.2
20260903103507 64 48 5.0 9.0 0.00 0.00 0.00 73 1003.1
20260903103006 64 51 5.0 9.0 0.00 0.00 0.00 73 1003.1
20260903102002 64 26 3.0 8.0 0.00 0.00 0.00 73 1003.2
20260903101503 64 58 3.0 8.0 0.00 0.00 0.00 73 1002.8
20260903101001 64 34 3.0 8.0 0.00 0.00 0.00 73 1002.7
20260903100502 64 27 4.0 9.0 0.00 0.00 0.00 73 1002.7
20260903100003 64 58 5.0 9.0 0.00 0.00 0.00 73 1002.4
20260903095559 64 52 4.0 7.0 0.00 0.00 0.00 72 1002.6
20260903095101 65 32 3.0 6.0 0.00 0.00 0.00 71 1002.9
20260903094558 65 38 3.0 6.0 0.00 0.00 0.00 70 1003.0
20260903094056 65 46 2.0 6.0 0.00 0.00 0.00 69 1003.0
20260903093555 66 39 3.0 10.0 0.00 0.00 0.00 69 1002.7
20260903093053 66 19 3.0 10.0 0.00 0.00 0.00 68 1002.5
20260903092654 67 48 5.0 11.0 0.00 0.00 0.00 68 1002.5
20260903092055 67 36 5.0 10.0 0.00 0.00 0.00 67 1002.3
20260903091557 67 44 4.0 11.0 0.00 0.00 0.00 67 1002.5
20260903091053 68 36 5.0 14.0 0.00 0.00 0.00 66 1002.6
20260903090550 68 42 9.0 14.0 0.00 0.00 0.00 66 1002.5
20260903090050 69 42 6.0 11.0 0.00 0.00 0.00 67 1002.5
20260903090014 69 49 5.0 11.0 0.00 0.00 0.00 68 1002.4
20260903085549 69 65 5.0 13.0 0.00 0.00 0.00 70 1002.5
20260903085049 68 5 5.0 13.0 0.00 0.00 0.00 68 1002.4
20260903084551 68 26 4.0 8.0 0.00 0.00 0.00 67 1002.6
20260903084049 68 10 4.0 11.0 0.00 0.00 0.00 67 1002.8
20260903083548 68 11 6.0 13.0 0.00 0.00 0.00 67 1002.8
20260903083047 68 30 6.0 14.0 0.00 0.00 0.00 66 1002.8
20260903082647 69 10 2.0 13.0 0.00 0.00 0.00 67 1002.9
20260903082045 69 355 2.0 13.0 0.00 0.00 0.00 67 1003.0
20260903081545 69 5 6.0 13.0 0.00 0.00 0.00 67 1003.0
20260903081042 70 302 2.0 9.0 0.00 0.00 0.00 63 1003.1
20260903080544 72 15 2.0 7.0 0.00 0.00 0.00 62 1003.1
20260903080041 73 42 1.0 3.0 0.00 0.00 0.00 71 1003.3
20260903075542 73 26 0.0 3.0 0.00 0.00 0.00 71 1003.3
20260903075043 73 26 0.0 4.0 0.00 0.00 0.00 70 1003.3
20260903074541 73 22 2.0 4.0 0.00 0.00 0.00 70 1003.2
20260903074040 73 40 0.0 5.0 0.00 0.00 0.00 69 1003.4
20260903073542 74 38 2.0 5.0 0.00 0.00 0.00 69 1003.4
20260903073039 74 316 0.0 5.0 0.00 0.00 0.00 70 1003.4
20260903072638 73 311 4.0 9.0 0.00 0.00 0.00 71 1003.2
20260903072041 73 46 5.0 9.0 0.00 0.00 0.00 71 1003.1
20260903071552 72 24 1.0 6.0 0.00 0.00 0.00 71 1003.1
20260903071038 72 355 1.0 7.0 0.00 0.00 0.00 71 1003.3
20260903070537 72 286 2.0 4.0 0.00 0.00 0.00 71 1003.4
20260903070036 72 267 0.0 3.0 0.00 0.00 0.00 71 1002.9
20260903065538 72 267 0.0 4.0 0.00 0.00 0.00 70 1002.8
20260903065036 73 264 1.0 9.0 0.00 0.00 0.00 70 1003.0
20260903064537 73 262 2.0 12.0 0.00 0.00 0.00 70 1003.0
20260903064033 73 194 6.0 15.0 0.00 0.00 0.00 70 1002.8
20260903063532 73 178 5.0 16.0 0.00 0.00 0.00 69 1002.2
20260903063032 73 121 8.0 18.0 0.00 0.00 0.00 69 1001.9
20260903062632 73 124 11.0 15.0 0.00 0.00 0.00 69 1001.7
20260903062034 73 132 9.0 15.0 0.00 0.00 0.00 69 1001.8
20260903061534 74 132 11.0 16.0 0.00 0.00 0.00 69 1001.8
20260903061036 74 165 10.0 16.0 0.00 0.00 0.00 69 1001.8
20260903060534 74 139 7.0 13.0 0.00 0.00 0.00 69 1001.9
20260903060033 74 122 7.0 14.0 0.00 0.00 0.00 68 1002.0
20260903055533 73 185 5.0 12.0 0.00 0.00 0.00 68 1002.0
20260903055033 73 188 3.0 12.0 0.00 0.00 0.00 68 1002.2
20260903054535 74 182 4.0 16.0 0.00 0.00 0.00 67 1002.1
20260903054036 74 117 7.0 19.0 0.00 0.00 0.00 67 1001.7
20260903053534 74 115 10.0 19.0 0.00 0.00 0.00 67 1001.2
20260903053035 74 89 13.0 19.0 0.00 0.00 0.00 67 1001.5
20260903052632 74 134 11.0 19.0 0.00 0.00 0.00 67 1001.6
20260903052034 74 136 10.0 17.0 0.00 0.00 0.00 67 1001.5
20260903051552 74 123 9.0 17.0 0.00 0.00 0.00 67 1001.5
20260903051033 74 138 10.0 16.0 0.00 0.00 0.00 67 1001.3
20260903050537 74 107 8.0 14.0 0.00 0.00 0.00 67 1001.2
20260903050033 74 111 8.0 14.0 0.00 0.00 0.00 67 1001.4
20260903045532 74 117 6.0 13.0 0.00 0.00 0.00 67 1001.6
20260903045031 74 102 6.0 13.0 0.00 0.00 0.00 66 1002.0
20260903044539 74 106 5.0 12.0 0.00 0.00 0.00 66 1002.0
20260903044030 74 136 5.0 12.0 0.00 0.00 0.00 66 1002.7
20260903043532 75 94 6.0 12.0 0.00 0.00 0.00 66 1002.7
20260903043107 75 125 5.0 11.0 0.00 0.00 0.00 66 1003.0
20260903042027 75 144 3.0 12.0 0.00 0.00 0.00 65 1002.8
20260903041527 76 105 5.0 12.0 0.00 0.00 0.00 65 1002.9
20260903041025 76 85 5.0 13.0 0.00 0.00 0.00 64 1003.0
20260903040525 76 127 6.0 13.0 0.00 0.00 0.00 64 1002.9
20260903040026 76 114 7.0 17.0 0.00 0.00 0.00 64 1002.9
20260903035525 76 140 6.0 17.0 0.00 0.00 0.00 63 1003.0
20260903035027 76 121 10.0 16.0 0.00 0.00 0.00 63 1002.9
20260903034536 76 118 7.0 18.0 0.00 0.00 0.00 63 1002.7
20260903034025 77 116 9.0 17.0 0.00 0.00 0.00 63 1002.9
20260903033524 77 92 10.0 17.0 0.00 0.00 0.00 63 1002.8
20260903033026 77 94 7.0 14.0 0.00 0.00 0.00 63 1002.9
20260903032625 77 113 6.0 14.0 0.00 0.00 0.00 63 1002.9
20260903032026 77 138 6.0 14.0 0.00 0.00 0.00 63 1002.8
20260903031523 77 111 7.0 15.0 0.00 0.00 0.00 63 1002.9
20260903031025 77 98 6.0 17.0 0.00 0.00 0.00 63 1002.8
20260903030523 77 124 11.0 16.0 0.00 0.00 0.00 63 1002.8
20260903030023 77 114 7.0 18.0 0.00 0.00 0.00 63 1002.7
20260903025524 78 134 10.0 16.0 0.00 0.00 0.00 63 1002.8
20260903025022 78 148 10.0 20.0 0.00 0.00 0.00 63 1003.0
20260903024525 78 113 9.0 20.0 0.00 0.00 0.00 62 1002.8
20260903024022 78 126 9.0 18.0 0.00 0.00 0.00 62 1002.7
20260903023521 78 152 10.0 18.0 0.00 0.00 0.00 62 1002.8
20260903023021 78 126 7.0 16.0 0.00 0.00 0.00 62 1002.7
20260903022621 79 88 7.0 16.0 0.00 0.00 0.00 61 1002.8
20260903022022 79 175 7.0 16.0 0.00 0.00 0.00 61 1002.9
20260903021522 79 142 7.0 16.0 0.00 0.00 0.00 61 1002.9
20260903021021 79 91 6.0 16.0 0.00 0.00 0.00 60 1002.7
20260903020521 79 152 7.0 17.0 0.00 0.00 0.00 60 1002.7
20260903020024 79 130 4.0 15.0 0.00 0.00 0.00 59 1002.8
20260903015524 80 119 8.0 15.0 0.00 0.00 0.00 59 1002.7
20260903015021 80 135 8.0 13.0 0.00 0.00 0.00 59 1002.8
20260903014523 80 137 7.0 17.0 0.00 0.00 0.00 58 1002.7
20260903014020 80 119 9.0 17.0 0.00 0.00 0.00 58 1002.6
20260903013523 81 105 8.0 14.0 0.00 0.00 0.00 57 1002.6
20260903013022 81 126 7.0 14.0 0.00 0.00 0.00 57 1002.5
20260903012620 81 108 6.0 15.0 0.00 0.00 0.00 56 1002.6
20260903012020 82 116 7.0 15.0 0.00 0.00 0.00 56 1002.6
20260903011523 82 120 10.0 16.0 0.00 0.00 0.00 55 1002.7
20260903011019 82 126 9.0 16.0 0.00 0.00 0.00 54 1002.6
20260903010523 83 114 7.0 15.0 0.00 0.00 0.00 53 1002.6
20260903010020 83 107 8.0 17.0 0.00 0.00 0.00 51 1002.7
20260903005520 84 123 10.0 17.0 0.00 0.00 0.00 49 1002.6
20260903005020 84 130 11.0 17.0 0.00 0.00 0.00 49 1002.8
20260903004519 84 132 11.0 19.0 0.00 0.00 0.00 49 1002.7
20260903004019 84 128 14.0 19.0 0.00 0.00 0.00 50 1002.7
20260903003520 84 130 14.0 19.0 0.00 0.00 0.00 50 1002.5
20260903003022 84 138 8.0 18.0 0.00 0.00 0.00 50 1002.5
20260903002619 85 92 8.0 17.0 0.00 0.00 0.00 49 1002.4
20260903002015 85 126 9.0 17.0 0.00 0.00 0.00 48 1002.5
20260903001517 85 114 12.0 17.0 0.00 0.00 0.00 47 1002.5
20260903001015 85 134 10.0 17.0 0.00 0.00 0.00 47 1002.7
20260903000515 85 120 11.0 17.0 0.00 0.00 0.00 47 1002.8
20260903000014 86 138 11.0 17.0 0.00 0.00 0.00 47 1002.6
20260902235514 85 144 8.0 17.0 0.00 0.00 0.00 48 1002.8
20260902235018 85 140 11.0 18.0 0.00 0.00 0.00 48 1002.7
20260902234521 85 128 9.0 18.0 0.00 0.00 0.00 49 1002.7
20260902234014 84 127 10.0 18.0 0.00 0.00 0.00 48 1002.6
20260902233513 84 136 9.0 18.0 0.00 0.00 0.00 48 1002.7
20260902233012 84 134 13.0 18.0 0.00 0.00 0.00 48 1002.7
20260902232615 85 127 9.0 16.0 0.00 0.00 0.00 48 1002.7
20260902232013 85 165 9.0 16.0 0.00 0.00 0.00 48 1002.8
20260902231514 85 142 11.0 20.0 0.00 0.00 0.00 47 1002.8
20260902231013 85 104 11.0 23.0 0.00 0.00 0.00 47 1002.9
20260902230511 86 146 15.0 23.0 0.00 0.00 0.00 45 1002.9
20260902230012 87 140 13.0 20.0 0.00 0.00 0.00 45 1002.8
20260902225512 87 155 13.0 20.0 0.00 0.00 0.00 45 1002.9
20260902225012 87 140 13.0 19.0 0.00 0.00 0.00 45 1002.9
20260902224511 87 129 12.0 24.0 0.00 0.00 0.00 45 1003.0
20260902224011 87 149 12.0 24.0 0.00 0.00 0.00 45 1002.9
20260902223514 87 124 11.0 18.0 0.00 0.00 0.00 44 1002.8
20260902223021 87 127 12.0 21.0 0.00 0.00 0.00 44 1002.8
20260902222612 87 172 12.0 17.0 0.00 0.00 0.00 43 1003.0
20260902222037 87 176 12.0 17.0 0.00 0.00 0.00 43 1003.0
20260902221530 88 140 10.0 19.0 0.00 0.00 0.00 43 1002.9
20260902221029 87 115 10.0 19.0 0.00 0.00 0.00 44 1003.0
20260902220532 87 153 12.0 21.0 0.00 0.00 0.00 44 1003.0
20260902220029 87 138 12.0 21.0 0.00 0.00 0.00 43 1003.1
20260902215530 87 165 11.0 18.0 0.00 0.00 0.00 45 1003.0
20260902215028 87 146 15.0 18.0 0.00 0.00 0.00 44 1003.1
20260902214527 87 143 11.0 19.0 0.00 0.00 0.00 44 1003.4
20260902214033 88 138 12.0 18.0 0.00 0.00 0.00 44 1003.3
20260902213525 87 126 10.0 21.0 0.00 0.00 0.00 45 1003.4
20260902213029 87 136 12.0 21.0 0.00 0.00 0.00 46 1003.5
20260902212524 87 134 11.0 22.0 0.00 0.00 0.00 46 1003.6
20260902212006 87 145 10.0 22.0 0.00 0.00 0.00 45 1003.7
20260902211505 87 140 13.0 19.0 0.00 0.00 0.00 45 1003.8
20260902211007 86 169 13.0 19.0 0.00 0.00 0.00 46 1003.7
20260902210503 87 140 13.0 21.0 0.00 0.00 0.00 46 1003.9
20260902210003 87 146 11.0 21.0 0.00 0.00 0.00 45 1003.8
20260902205504 87 131 11.0 19.0 0.00 0.00 0.00 46 1003.8
20260902205002 87 146 10.0 21.0 0.00 0.00 0.00 47 1004.0
20260902204600 86 113 12.0 21.0 0.00 0.00 0.00 46 1004.0
20260902204058 86 146 10.0 21.0 0.00 0.00 0.00 46 1004.2
20260902203601 86 117 16.0 21.0 0.00 0.00 0.00 47 1004.3
20260902203105 86 150 10.0 23.0 0.00 0.00 0.00 48 1004.3
20260902202556 86 138 13.0 22.0 0.00 0.00 0.00 48 1004.6
20260902201607 86 146 13.0 21.0 0.00 0.00 0.00 47 1004.6
20260902201103 86 137 9.0 21.0 0.00 0.00 0.00 48 1004.5
20260902200559 85 94 14.0 21.0 0.00 0.00 0.00 48 1004.7
20260902200133 85 132 13.0 21.0 0.00 0.00 0.00 49 1004.8
20260902195557 85 140 13.0 21.0 0.00 0.00 0.00 49 1004.7
20260902195055 85 170 11.0 21.0 0.00 0.00 0.00 49 1004.9
20260902194555 85 136 11.0 23.0 0.00 0.00 0.00 49 1004.9
20260902194056 85 155 13.0 24.0 0.00 0.00 0.00 50 1005.0
20260902193552 84 136 10.0 21.0 0.00 0.00 0.00 50 1005.0
20260902193051 85 149 11.0 20.0 0.00 0.00 0.00 50 1005.1
20260902192549 84 150 11.0 22.0 0.00 0.00 0.00 51 1005.1
20260902192019 84 109 12.0 22.0 0.00 0.00 0.00 51 1005.1
20260902191517 84 148 14.0 26.0 0.00 0.00 0.00 51 1005.4
20260902191015 84 138 16.0 26.0 0.00 0.00 0.00 52 1005.4
20260902190514 84 107 13.0 25.0 0.00 0.00 0.00 51 1005.6
20260902190024 83 167 15.0 25.0 0.00 0.00 0.00 52 1005.6
20260902185513 84 140 16.0 28.0 0.00 0.00 0.00 51 1005.7
20260902185013 84 150 16.0 26.0 0.00 0.00 0.00 52 1005.6
20260902184510 83 132 13.0 22.0 0.00 0.00 0.00 52 1005.8
20260902184009 81 136 11.0 23.0 0.00 0.00 0.00 54 1006.0
20260902183508 82 123 13.0 23.0 0.00 0.00 0.00 54 1006.0
20260902183008 82 138 15.0 27.0 0.00 0.00 0.00 53 1006.2
20260902182607 82 131 11.0 22.0 0.00 0.00 0.00 53 1006.1
20260902181535 82 136 14.0 23.0 0.00 0.00 0.00 54 1006.3
20260902181034 82 140 12.0 24.0 0.00 0.00 0.00 53 1006.3
20260902180534 82 219 12.0 24.0 0.00 0.00 0.00 54 1006.4
20260902180033 81 137 13.0 21.0 0.00 0.00 0.00 54 1006.5
20260902175532 81 103 14.0 25.0 0.00 0.00 0.00 55 1006.7
20260902175034 81 134 16.0 25.0 0.00 0.00 0.00 55 1006.6
20260902174531 81 132 16.0 23.0 0.00 0.00 0.00 55 1006.6
20260902174031 81 134 14.0 22.0 0.00 0.00 0.00 55 1006.8
20260902173530 81 135 13.0 19.0 0.00 0.00 0.00 57 1006.9
20260902173029 80 152 9.0 22.0 0.00 0.00 0.00 57 1006.9
20260902172527 80 140 12.0 22.0 0.00 0.00 0.00 58 1006.9
20260902171531 79 128 13.0 22.0 0.00 0.00 0.00 59 1007.2
20260902171030 79 154 12.0 21.0 0.00 0.00 0.00 60 1007.0
20260902170533 79 130 14.0 21.0 0.00 0.00 0.00 60 1007.2
20260902170029 78 136 13.0 20.0 0.00 0.00 0.00 61 1007.3
20260902165528 78 119 11.0 20.0 0.00 0.00 0.00 60 1007.5
20260902165027 78 144 13.0 21.0 0.00 0.00 0.00 60 1007.3
20260902164527 78 137 15.0 21.0 0.00 0.00 0.00 60 1007.3
20260902164026 78 123 9.0 17.0 0.00 0.00 0.00 61 1007.3
20260902163526 78 130 11.0 17.0 0.00 0.00 0.00 61 1007.3
20260902163025 77 169 8.0 17.0 0.00 0.00 0.00 62 1007.5
20260902162624 76 140 11.0 17.0 0.00 0.00 0.00 63 1007.5
20260902161519 75 138 10.0 18.0 0.00 0.00 0.00 67 1007.6
20260902161018 74 121 12.0 18.0 0.00 0.00 0.00 67 1007.7
20260902160516 74 141 10.0 15.0 0.00 0.00 0.00 68 1007.8
20260902160017 73 142 9.0 15.0 0.00 0.00 0.00 68 1007.7
20260902155515 73 136 9.0 14.0 0.00 0.00 0.00 68 1007.9
20260902155014 73 140 7.0 14.0 0.00 0.00 0.00 70 1007.8
20260902154512 72 175 6.0 14.0 0.00 0.00 0.00 71 1008.0
20260902154011 72 141 8.0 13.0 0.00 0.00 0.00 72 1008.2
20260902153510 71 141 7.0 15.0 0.00 0.00 0.00 73 1008.3
20260902153009 70 159 6.0 13.0 0.00 0.00 0.00 73 1008.5
20260902152508 69 207 5.0 14.0 0.00 0.00 0.00 73 1008.3
20260902151507 69 120 8.0 15.0 0.00 0.00 0.00 72 1008.5
20260902151009 69 146 10.0 15.0 0.00 0.00 0.00 71 1008.5
20260902150507 68 142 10.0 15.0 0.00 0.00 0.00 70 1008.6
20260902150006 68 144 10.0 14.0 0.00 0.00 0.00 67 1008.8
20260902145502 68 116 9.0 13.0 0.00 0.00 0.00 68 1008.6
20260902145100 67 144 10.0 14.0 0.00 0.00 0.00 67 1008.8
20260902144559 67 139 9.0 13.0 0.00 0.00 0.00 68 1008.8
20260902144058 66 163 7.0 11.0 0.00 0.00 0.00 67 1008.8
20260902143557 66 142 7.0 11.0 0.00 0.00 0.00 67 1008.8
20260902143056 65 126 6.0 11.0 0.00 0.00 0.00 67 1008.7
20260902142555 65 119 7.0 11.0 0.00 0.00 0.00 67 1008.8
20260902141559 65 143 5.0 10.0 0.00 0.00 0.00 68 1008.8
20260902141055 64 144 3.0 8.0 0.00 0.00 0.00 68 1008.9
20260902140553 64 174 5.0 9.0 0.00 0.00 0.00 68 1009.0
20260902140052 63 153 4.0 10.0 0.00 0.00 0.00 68 1008.9
20260902135551 63 161 4.0 10.0 0.00 0.00 0.00 69 1009.0
20260902135052 62 156 0.0 5.0 0.00 0.00 0.00 71 1009.0
20260902134551 61 156 0.0 3.0 0.00 0.00 0.00 71 1008.9
20260902134051 61 156 1.0 3.0 0.00 0.00 0.00 73 1009.1
20260902133551 60 156 1.0 3.0 0.00 0.00 0.00 74 1009.2
20260902133052 59 156 0.0 5.0 0.00 0.00 0.00 75 1009.2
20260902132553 58 156 0.0 5.0 0.00 0.00 0.00 77 1009.2
20260902131547 56 157 0.0 2.0 0.00 0.00 0.00 81 1009.1
20260902131047 55 147 0.0 2.0 0.00 0.00 0.00 81 1009.2
20260902130546 54 147 1.0 2.0 0.00 0.00 0.00 82 1009.3
20260902130046 54 147 1.0 2.0 0.00 0.00 0.00 83 1009.2
20260902125550 53 147 0.0 1.0 0.00 0.00 0.00 81 1009.3
20260902125047 53 147 0.0 0.0 0.00 0.00 0.00 82 1009.1
20260902124557 53 147 0.0 0.0 0.00 0.00 0.00 81 1009.1
20260902124050 53 147 0.0 0.0 0.00 0.00 0.00 80 1009.1
20260902123546 54 147 0.0 0.0 0.00 0.00 0.00 80 1009.0
20260902123047 54 147 0.0 0.0 0.00 0.00 0.00 80 1009.1
20260902122546 54 147 0.0 0.0 0.00 0.00 0.00 79 1009.0
20260902121549 55 147 0.0 2.0 0.00 0.00 0.00 77 1009.1
20260902121048 56 147 0.0 3.0 0.00 0.00 0.00 77 1008.9
20260902120548 56 147 1.0 12.0 0.00 0.00 0.00 78 1008.9
20260902120047 55 148 5.0 12.0 0.00 0.00 0.00 83 1009.0
20260902115547 54 118 0.0 4.0 0.00 0.00 0.00 81 1009.0
20260902115047 54 130 0.0 3.0 0.00 0.00 0.00 81 1009.1
20260902114548 54 130 0.0 3.0 0.00 0.00 0.00 82 1009.1
20260902114049 53 130 0.0 2.0 0.00 0.00 0.00 82 1009.0
20260902113547 53 130 0.0 2.0 0.00 0.00 0.00 82 1009.0